Tracking 33200 objects as of 17-Feb-2026
HD Live streaming from Space Station
objects crossing your sky now

DMSP 5D-2 F11 DEB

Track DMSP 5D-2 F11 DEB now!
10-day predictions


NORAD ID: 28330
Int'l Code: 1991-082AT
Perigee: 721.0 km
Apogee: 824.5 km
Inclination: 98.9 °
Period: 100.1 minutes
Semi major axis: 7143 km
RCS: 0.0098 m2 (small)
Launch date: November 28, 1991
Source: United States (US)
Launch site: AIR FORCE WESTERN TEST RANGE (AFWTR)

Note: This is SATELLITE DEBRIS
Your satellite tracking list
Your tracking list is empty




NASA's NSSDC Master Catalog

Two Line Element Set (TLE):
1 28330U 91082AT  26046.16032681  .00004359  00000-0  14165-2 0  9991
2 28330  98.9391 119.4080 0072439 131.1164 229.6306 14.37858510122805
Source of the keplerian elements: AFSPC